User: anonymous   Login
Location: Niverville
(49.6028°N, 97.0419°W)
Time: 02:14:53
(UTC-05:00)
Language:

BREEZE-M DEB (TANK) - Orbit

View from above orbital plane
View from above orbital plane
View from above satellite
View from above satellite

Ground track
Ground track

The orbit data is extracted from the following two-line orbital elements,

1 33374U 08044B   17290.64435566 -.00000071  00000-0  62913-4 0  9998
2 33374  49.4364 197.4283 5421168 158.2757 238.3232  4.87161373159972
Epoch (UTC): 17 October 2017 15:27:52
Eccentricity: 0.5421168
inclination: 49.4364°
perigee height: 352 km
apogee height: 16289 km
right ascension of ascending node: 197.4283°
argument of perigee: 158.2757°
revolutions per day: 4.87161373
mean anomaly at epoch: 238.3232°
orbit number at epoch: 15997

The dashed part of the orbit path shows where the satellite is in the earth's shadow,  

DLR